When you browse on this site, cookies collect data to enhance your experience and personalize the content and advertising you see.
Visit our Privacy Policy to learn more. By continuing to use the site, you agree to this use of cookies and data.
  • In Germany
  • List of Countries
  • For 7 days
  • Water Temperature
  • Weather Map
  • Weather Widgets
  • user-avatar
    Login

    Hourly Weather Kuligow

    Today, 2 June, Tuesday

    Time Temperature Precipitation Wind Pressure Humidity
    00:00 +10°C° 0.6 mm 2 mps 755 mmHg 92%
    01:00 +9°C° 0 mm 2 mps 754 mmHg 94%
    02:00 +9°C° 0.1 mm 3 mps 754 mmHg 94%
    03:00 +8°C° 0.1 mm 3 mps 754 mmHg 94%
    04:00 +8°C° 0.1 mm 3 mps 754 mmHg 94%
    05:00 +9°C° 0 mm 3 mps 754 mmHg 89%
    06:00 +10°C° 0 mm 4 mps 754 mmHg 83%
    07:00 +11°C° 0 mm 4 mps 754 mmHg 77%
    08:00 +13°C° 0 mm 4 mps 753 mmHg 70%
    09:00 +14°C° 0 mm 5 mps 753 mmHg 63%
    10:00 +15°C° 0 mm 5 mps 753 mmHg 56%
    11:00 +16°C° 0 mm 5 mps 753 mmHg 55%
    12:00 +17°C° 0 mm 5 mps 752 mmHg 53%
    13:00 +17°C° 0 mm 6 mps 752 mmHg 52%
    14:00 +17°C° 0.1 mm 6 mps 751 mmHg 53%
    15:00 +17°C° 0.1 mm 6 mps 751 mmHg 55%
    16:00 +17°C° 0.1 mm 6 mps 750 mmHg 56%
    17:00 +16°C° 0.1 mm 5 mps 750 mmHg 62%
    18:00 +14°C° 0.1 mm 4 mps 750 mmHg 69%
    19:00 +13°C° 0.1 mm 3 mps 750 mmHg 75%
    20:00 +12°C° 0 mm 3 mps 750 mmHg 79%
    21:00 +11°C° 0 mm 3 mps 749 mmHg 83%
    22:00 +10°C° 0 mm 3 mps 749 mmHg 87%
    23:00 +9°C° 0 mm 3 mps 749 mmHg 88%

    Tomorrow, 3 June, Wednesday

    Time Temperature Precipitation Wind Pressure Humidity
    00:00 +9°C° 0 mm 3 mps 749 mmHg 90%
    01:00 +8°C° 0 mm 3 mps 749 mmHg 91%
    02:00 +8°C° 0 mm 3 mps 749 mmHg 90%
    03:00 +8°C° 0 mm 3 mps 748 mmHg 90%
    04:00 +8°C° 0 mm 3 mps 748 mmHg 89%
    05:00 +8°C° 0.1 mm 3 mps 748 mmHg 88%
    06:00 +9°C° 0.1 mm 3 mps 747 mmHg 86%
    07:00 +10°C° 0.1 mm 3 mps 747 mmHg 84%
    08:00 +10°C° 0.1 mm 3 mps 747 mmHg 84%
    09:00 +11°C° 0.1 mm 3 mps 747 mmHg 84%
    10:00 +11°C° 0.1 mm 3 mps 747 mmHg 84%
    11:00 +13°C° 0.2 mm 3 mps 747 mmHg 78%
    12:00 +14°C° 0.2 mm 4 mps 747 mmHg 72%
    13:00 +17°C° 0.2 mm 4 mps 746 mmHg 66%
    14:00 +17°C° 0.4 mm 4 mps 746 mmHg 66%
    15:00 +17°C° 0.4 mm 4 mps 746 mmHg 67%
    16:00 +17°C° 0.4 mm 4 mps 745 mmHg 67%
    17:00 +16°C° 0.2 mm 3 mps 745 mmHg 72%
    18:00 +14°C° 0.2 mm 3 mps 745 mmHg 78%
    19:00 +14°C° 0.2 mm 2 mps 745 mmHg 83%
    20:00 +13°C° 0 mm 2 mps 745 mmHg 86%
    21:00 +12°C° 0 mm 2 mps 745 mmHg 88%
    22:00 +10°C° 0 mm 2 mps 745 mmHg 91%
    23:00 +9°C° 0 mm 2 mps 745 mmHg 92%

    Day after tomorrow, 4 June, Thursday

    Time Temperature Precipitation Wind Pressure Humidity
    00:00 +9°C° 0 mm 2 mps 745 mmHg 94%
    01:00 +8°C° 0 mm 2 mps 744 mmHg 95%
    02:00 +8°C° 0 mm 2 mps 744 mmHg 95%
    03:00 +9°C° 0 mm 1 mps 744 mmHg 95%
    04:00 +8°C° 0 mm 1 mps 744 mmHg 95%
    05:00 +10°C° 0 mm 1 mps 744 mmHg 89%
    06:00 +12°C° 0 mm 1 mps 744 mmHg 83%
    07:00 +14°C° 0 mm 1 mps 744 mmHg 77%
    08:00 +15°C° 0 mm 1 mps 744 mmHg 70%
    09:00 +18°C° 0 mm 1 mps 744 mmHg 64%
    10:00 +19°C° 0 mm 1 mps 743 mmHg 57%
    11:00 +20°C° 0 mm 1 mps 743 mmHg 54%
    12:00 +21°C° 0 mm 1 mps 743 mmHg 51%
    13:00 +22°C° 0 mm 1 mps 743 mmHg 48%
    14:00 +22°C° 0 mm 1 mps 743 mmHg 47%
    15:00 +22°C° 0 mm 1 mps 742 mmHg 46%
    16:00 +22°C° 0 mm 1 mps 742 mmHg 45%
    17:00 +21°C° 0 mm 1 mps 742 mmHg 52%
    18:00 +19°C° 0 mm 2 mps 742 mmHg 58%
    19:00 +17°C° 0 mm 2 mps 742 mmHg 65%
    20:00 +16°C° 0 mm 2 mps 742 mmHg 66%
    21:00 +14°C° 0 mm 3 mps 742 mmHg 67%
    22:00 +14°C° 0 mm 3 mps 742 mmHg 69%
    23:00 +13°C° 0 mm 4 mps 741 mmHg 71%

    5 June, Friday

    Time Temperature Precipitation Wind Pressure Humidity
    00:00 +13°C° 0 mm 4 mps 741 mmHg 74%
    01:00 +12°C° 0 mm 4 mps 741 mmHg 77%
    02:00 +12°C° 0 mm 4 mps 740 mmHg 78%
    03:00 +12°C° 0 mm 5 mps 740 mmHg 80%
    04:00 +12°C° 0 mm 5 mps 739 mmHg 81%
    05:00 +13°C° 0 mm 5 mps 739 mmHg 82%
    06:00 +14°C° 0 mm 5 mps 739 mmHg 83%
    07:00 +15°C° 0 mm 6 mps 738 mmHg 84%
    08:00 +17°C° 0 mm 5 mps 738 mmHg 80%
    09:00 +19°C° 0 mm 5 mps 738 mmHg 75%
    10:00 +21°C° 0 mm 5 mps 738 mmHg 71%
    11:00 +21°C° 0.1 mm 6 mps 739 mmHg 70%
    12:00 +22°C° 0.1 mm 6 mps 739 mmHg 70%
    13:00 +22°C° 0.1 mm 7 mps 739 mmHg 69%
    14:00 +21°C° 0.1 mm 7 mps 740 mmHg 70%
    15:00 +20°C° 0.1 mm 6 mps 740 mmHg 71%
    16:00 +20°C° 0.1 mm 6 mps 741 mmHg 72%
    17:00 +17°C° 0 mm 5 mps 741 mmHg 75%
    18:00 +17°C° 0 mm 3 mps 742 mmHg 79%
    19:00 +16°C° 0 mm 2 mps 742 mmHg 82%
    20:00 +14°C° 0.2 mm 3 mps 743 mmHg 85%
    21:00 +14°C° 0.2 mm 3 mps 743 mmHg 88%
    22:00 +13°C° 0.2 mm 3 mps 744 mmHg 91%
    23:00 +12°C° 1.1 mm 3 mps 744 mmHg 92%

    6 June, Saturday

    Time Temperature Precipitation Wind Pressure Humidity
    00:00 +13°C° 1.1 mm 2 mps 744 mmHg 93%
    01:00 +12°C° 1.1 mm 2 mps 744 mmHg 94%
    02:00 +12°C° 0 mm 2 mps 744 mmHg 94%
    03:00 +12°C° 0 mm 2 mps 745 mmHg 94%
    04:00 +10°C° 0 mm 2 mps 745 mmHg 94%
    05:00 +12°C° 0 mm 3 mps 745 mmHg 89%
    06:00 +13°C° 0 mm 4 mps 746 mmHg 84%
    07:00 +14°C° 0 mm 6 mps 746 mmHg 79%
    08:00 +16°C° 0 mm 6 mps 746 mmHg 73%
    09:00 +17°C° 0 mm 6 mps 746 mmHg 67%
    10:00 +19°C° 0 mm 6 mps 747 mmHg 61%
    11:00 +20°C° 0.1 mm 7 mps 747 mmHg 60%
    12:00 +20°C° 0.1 mm 7 mps 747 mmHg 59%
    13:00 +21°C° 0.1 mm 7 mps 747 mmHg 58%
    14:00 +21°C° 0 mm 7 mps 747 mmHg 57%
    15:00 +21°C° 0 mm 7 mps 748 mmHg 57%
    16:00 +22°C° 0 mm 6 mps 748 mmHg 56%
    17:00 +21°C° 0 mm 5 mps 748 mmHg 62%
    18:00 +19°C° 0 mm 4 mps 748 mmHg 68%
    19:00 +18°C° 0 mm 3 mps 748 mmHg 74%
    20:00 +17°C° 0 mm 3 mps 749 mmHg 77%
    21:00 +16°C° 0 mm 3 mps 749 mmHg 80%
    22:00 +14°C° 0 mm 3 mps 750 mmHg 84%
    23:00 +16°C° 0 mm 2 mps 750 mmHg 83%

    7 June, Sunday

    Time Temperature Precipitation Wind Pressure Humidity
    00:00 +16°C° 0 mm 2 mps 750 mmHg 82%
    01:00 +16°C° 0 mm 2 mps 751 mmHg 82%
    02:00 +16°C° 0 mm 2 mps 751 mmHg 82%
    03:00 +15°C° 0 mm 2 mps 751 mmHg 82%
    04:00 +15°C° 0 mm 2 mps 751 mmHg 82%
    05:00 +16°C° 0 mm 2 mps 751 mmHg 80%
    06:00 +17°C° 0 mm 2 mps 751 mmHg 77%
    07:00 +19°C° 0 mm 2 mps 751 mmHg 74%
    08:00 +20°C° 0.3 mm 3 mps 752 mmHg 70%
    09:00 +22°C° 0.3 mm 4 mps 752 mmHg 67%
    10:00 +23°C° 0.3 mm 4 mps 752 mmHg 63%
    11:00 +25°C° 0.8 mm 5 mps 752 mmHg 62%
    12:00 +25°C° 0.8 mm 5 mps 751 mmHg 60%
    13:00 +26°C° 0.8 mm 5 mps 751 mmHg 59%
    14:00 +26°C° 0.7 mm 5 mps 751 mmHg 60%
    15:00 +26°C° 0.7 mm 4 mps 750 mmHg 62%
    16:00 +26°C° 0.7 mm 4 mps 750 mmHg 63%
    17:00 +25°C° 0.3 mm 4 mps 750 mmHg 68%
    18:00 +22°C° 0.3 mm 4 mps 750 mmHg 73%
    19:00 +21°C° 0.3 mm 4 mps 749 mmHg 78%
    20:00 +20°C° 0 mm 3 mps 749 mmHg 81%
    21:00 +19°C° 0 mm 3 mps 749 mmHg 84%
    22:00 +18°C° 0 mm 3 mps 749 mmHg 87%
    23:00 +17°C° 0 mm 3 mps 749 mmHg 88%
    Show more